Flag for Austria Past Weather in Waidhofen an der Ybbs, Lower Austria, Austria — Yesterday and Last 2 Weeks

Now
66 °F

Scattered clouds.


Feels Like: 66 °F
Forecast: 60 / 78 °F
Wind: 1 mph from Southwest

Location: Amstetten

Current Time: Jul 26, 2016 at 8:41:23 AM

Latest Report: Jul 26, 2016 at 8:00 AM


Visibility: N/A

Pressure: 30.08 "Hg

Humidity: 96%

Dew Point: 65 °F

Location of Waidhofen an der YbbsLocation

Past Weather in Waidhofen an der Ybbs — Graph

°F

Waidhofen an der Ybbs Temperature Yesterday

Maximum temperature yesterday: 82 °F (at 2:00 PM)
Minimum temperature yesterday: 64 °F (at 6:00 AM)
Average temperature yesterday: 71 °F

High & Low Weather Summary for the Past Weeks

 TemperatureHumidityPressure
High92 °F (Jul 11, 4:00 PM)100% (Jul 18, 6:00 AM)30.29 "Hg (Jul 18, 6:00 AM)
Low50 °F (Jul 15, 4:00 AM)36% (Jul 11, 5:00 PM)29.78 "Hg (Jul 12, 8:00 PM)
Average68 °F81%30.04 "Hg
* Reported Jul 11 7:00 AM — Jul 26 7:00 AM, Waidhofen an der Ybbs, Weather by CustomWeather, © 2016

Note: Actual official high and low records may vary slightly from our data, if they occured in-between our weather recording intervals... More about our weather records

Advertising

Waidhofen an der Ybbs Weather History for the Previous 24 Hours

Scroll right to see more
 ConditionsComfort  
Time TempWeatherWind HumidityBarometerVisibility
7:00 AM
Tue, Jul 26
65 °FMild.1 mph97%30.08 "HgN/A
6:00 AM65 °FMild.1 mph100%30.08 "HgN/A
5:00 AM64 °FFog.1 mph99%30.07 "HgN/A
4:00 AM64 °FMild.No wind98%30.07 "HgN/A
3:00 AM65 °FMild.1 mph98%30.07 "HgN/A
2:00 AM66 °FMild.1 mph96%30.07 "HgN/A
1:00 AM66 °FMild.1 mph95%30.06 "HgN/A
12:00 AM66 °FMild.1 mph96%30.07 "HgN/A
11:00 PM
Mon, Jul 25
66 °FMild.1 mph96%30.07 "HgN/A
10:00 PM68 °FMild.1 mph95%30.07 "HgN/A
9:00 PM69 °FMild.1 mph92%30.05 "HgN/A
8:00 PM71 °FMild.1 mph89%30.04 "HgN/A
7:00 PM72 °FMild.1 mph83%30.03 "HgN/A
6:00 PM71 °FMild.1 mph87%30.02 "HgN/A
5:00 PM71 °FMild.1 mph91%30.03 "HgN/A
4:00 PM70 °FMild.1 mph89%30.02 "HgN/A
3:00 PM80 °FWarm.3 mph60%29.99 "HgN/A
2:00 PM82 °FWarm.2 mph58%29.98 "HgN/A
1:00 PM82 °FWarm.2 mph60%29.99 "HgN/A
12:00 PM80 °FWarm.2 mph65%30.01 "HgN/A
11:00 AM77 °FMild.2 mph73%30.03 "HgN/A
10:00 AM74 °FMild.2 mph78%30.03 "HgN/A
9:00 AM72 °FMild.2 mph84%30.04 "HgN/A
8:00 AM69 °FPassing clouds.2 mph91%30.05 "HgN/A
Weather by CustomWeather, © 2016

See weather overviewHow to use our weather pages